Location: Winter Haven
(28.0220°N, 81.7330°W)
Time: 02:10:21
(UTC-04:00)

Amateur Radio Satellites - All Passes

Search period start: 01 July 2016 01:40
Search period end: 02 July 2016 01:40
Location: Winter Haven, 28.0220°N, 81.7330°W

Satellite Date Start Highest point End Downlink Frequencies (MHz)
Time Altitude Azimuth
SPROUT 01 Jul 01:51:36 01:55:04 24° 263° (W) 01:58:33 437.525
BUGSAT 1 01 Jul 01:56:11 02:00:03 40° 285° (WNW) 02:03:58 437.445
UKube-1 01 Jul 01:56:14 01:58:42 15° 264° (W) 02:01:10 .
JAS-2 01 Jul 01:57:16 02:02:37 71° 102° (ESE) 02:07:45 435.910
BEESAT 01 Jul 01:58:06 01:59:54 12° 67° (ENE) 02:01:41 436.000
ITUPSAT 1 01 Jul 02:00:37 02:02:41 13° 67° (ENE) 02:04:45 437.325
PCSat 01 Jul 02:06:04 02:11:28 81° 293° (WNW) 02:16:55 145.827
BEESAT 2 01 Jul 02:21:11 02:25:01 55° 114° (ESE) 02:28:54 435.950
Oscar 19 01 Jul 02:25:33 02:30:26 44° 100° (E) 02:35:18 437.125/150
Cosmos 2491 01 Jul 02:43:20 02:50:13 26° 285° (WNW) 02:57:08 435.465 / 435.565
TISAT 1 01 Jul 03:03:22 03:05:40 14° 264° (W) 03:07:59 437.305
Gurwin Techsat 1B 01 Jul 03:03:37 03:08:42 44° 100° (E) 03:13:44 435.225
Cosmos 2504 01 Jul 03:04:10 03:12:05 40° 273° (W) 03:19:36 435.465 / 435.565
O/OREOS (USA 219) 01 Jul 03:06:51 03:11:10 46° 290° (WNW) 03:15:29 437.305
SWISSCUBE 01 Jul 03:07:22 03:12:10 90° 253° (WSW) 03:16:59 437.505
BEESAT 3 01 Jul 03:17:26 03:19:40 15° 305° (NW) 03:21:55 437.485
AIST 2 01 Jul 03:28:31 03:29:37 11° 108° (ESE) 03:30:45 435.215
BEESAT 01 Jul 03:32:32 03:37:09 51° 259° (W) 03:41:49 436.000
ITUPSAT 1 01 Jul 03:35:24 03:40:01 48° 260° (W) 03:44:40 437.325
KKS-1 01 Jul 03:39:49 03:42:30 16° 70° (ENE) 03:45:12 437.445
MOZHAYETS 4 01 Jul 03:49:02 03:52:18 19° 71° (ENE) 03:55:34
STARS 01 Jul 04:04:51 04:07:15 15° 69° (ENE) 04:09:37 437.465
Oscar 19 01 Jul 04:06:22 04:09:19 16° 292° (WNW) 04:12:18 437.125/150
AIST 1 01 Jul 04:13:41 04:17:06 23° 79° (E) 04:20:29
PHONESAT 2.4 01 Jul 04:25:24 04:27:53 22° 141° (SE) 04:30:22 2401.200-2431.200
ITAMSAT 1 01 Jul 04:32:58 04:38:09 67° 285° (WNW) 04:43:18 435.822/435.867
AO-7 01 Jul 04:35:50 04:43:47 46° 102° (ESE) 04:51:39 29.400- 29.500
Gurwin Techsat 1B 01 Jul 04:44:56 04:48:13 17° 292° (WNW) 04:51:30 435.225
AIST 2 01 Jul 05:03:48 05:07:40 40° 299° (WNW) 05:11:34 435.215
KKS-1 01 Jul 05:14:49 05:18:45 31° 261° (W) 05:22:42 437.445
CUBESAT XI-V 01 Jul 05:23:37 05:27:19 23° 72° (ENE) 05:31:00 437.345
MOZHAYETS 4 01 Jul 05:25:13 05:29:12 29° 262° (W) 05:33:13
STARS 01 Jul 05:39:18 05:43:15 34° 261° (W) 05:47:12 437.465
Cosmos 2499 01 Jul 05:40:01 05:46:35 24° 74° (ENE) 05:52:48 435.465 / 435.565
GONETS M04 01 Jul 05:41:28 05:49:32 40° 79° (E) 05:57:36
AIST 1 01 Jul 05:51:35 05:54:27 18° 271° (W) 05:57:19
PHONESAT 2.4 01 Jul 06:01:34 06:04:23 33° 333° (NNW) 06:07:12 2401.200-2431.200
NOAA 15 01 Jul 06:15:28 06:17:39 12° 95° (E) 06:19:48 137.62
AO-7 01 Jul 06:29:05 06:36:09 32° 296° (WNW) 06:43:12 29.400- 29.500
BRITE-PL 01 Jul 06:29:24 06:31:52 15° 96° (E) 06:34:22 437.365/2234.400
HORYU 2 01 Jul 06:37:29 06:41:51 52° 286° (WNW) 06:46:12 437.375
CUSAT 1 01 Jul 06:44:47 06:50:53 26° 91° (E) 06:56:24 437.405
GOMX 1 01 Jul 06:49:53 06:50:55 11° 95° (E) 06:51:57 467.674
AO-85 01 Jul 06:52:44 06:56:53 46° 61° (ENE) 07:00:44 145.980
CUBESAT XI-V 01 Jul 07:00:42 07:04:31 24° 263° (W) 07:08:20 437.345
Cubesat XI-IV 01 Jul 07:00:44 07:05:21 29° 98° (E) 07:09:57 437.490
NOAA 18 01 Jul 07:17:47 07:23:08 48° 101° (E) 07:28:29 137.9125
ISS 01 Jul 07:29:28 07:32:43 89° 107° (ESE) 07:35:58 145.825
Cosmos 2499 01 Jul 07:31:46 07:40:01 54° 270° (W) 07:47:43 435.465 / 435.565
DANDE 01 Jul 07:32:17 07:39:26 33° 90° (E) 07:46:19 436.750
CUTE-I 01 Jul 07:33:34 07:38:55 66° 102° (ESE) 07:44:13 437.470
DOVE 4 01 Jul 07:33:56 07:36:56 17° 97° (E) 07:40:02 437.250
GONETS M04 01 Jul 07:38:32 07:46:01 33° 273° (W) 07:53:34
PHONESAT 2.4 01 Jul 07:41:06 07:41:34 10° 349° (N) 07:42:03 2401.200-2431.200
STRAND 1 01 Jul 07:51:43 07:56:47 63° 75° (ENE) 08:01:52 437.568
NOAA 15 01 Jul 07:52:31 07:57:36 54° 286° (WNW) 08:02:41 137.62
LilacSat-2 01 Jul 07:55:07 07:58:54 53° 284° (WNW) 08:02:41 437.200
BRITE-PL 01 Jul 08:06:45 08:10:19 28° 286° (WNW) 08:14:00 437.365/2234.400
CINEMA 3 01 Jul 08:09:55 08:11:36 12° 94° (E) 08:13:18 145.822/145.860
CANX-2 01 Jul 08:15:16 08:16:28 11° 94° (E) 08:17:39 2200.000
GOMX 1 01 Jul 08:24:56 08:29:03 44° 284° (WNW) 08:33:23 467.674
CUSAT 1 01 Jul 08:25:07 08:32:42 49° 279° (W) 08:39:16 437.405
CUTE 1.7 + AOD 2 01 Jul 08:33:13 08:35:59 17° 95° (E) 08:38:45 437.475
SEEDS 01 Jul 08:33:30 08:34:27 11° 94° (E) 08:35:25 437.485
HO-68 01 Jul 08:39:46 08:46:01 32° 99° (E) 08:52:14 435.675
Cubesat XI-IV 01 Jul 08:40:52 08:45:14 26° 290° (WNW) 08:49:35 437.490
PRISM 01 Jul 08:45:09 08:48:41 28° 73° (ENE) 08:52:13 437.425
NOAA 18 01 Jul 08:59:54 09:03:20 17° 293° (WNW) 09:06:46 137.9125
AAUSAT CUBESAT 2 01 Jul 09:03:06 09:05:10 14° 95° (E) 09:07:15 437.432
DOVE 4 01 Jul 09:10:36 09:14:33 31° 286° (WNW) 09:18:43 437.250
DANDE 01 Jul 09:14:02 09:21:58 46° 280° (W) 09:29:32 436.750
CUTE-I 01 Jul 09:16:39 09:18:19 11° 295° (WNW) 09:19:58 437.470
CUBEBUG 2 01 Jul 09:22:13 09:25:59 24° 97° (E) 09:29:46 437.445
ZACube-1 01 Jul 09:36:49 09:39:07 14° 94° (E) 09:41:25 437.345
COMPASS 1 01 Jul 09:38:23 09:42:28 54° 100° (E) 09:46:32 437.405
Oscar 11 01 Jul 09:40:37 09:43:09 15° 95° (E) 09:45:40 145.826/435.025
CINEMA 3 01 Jul 09:44:16 09:48:47 49° 285° (WNW) 09:53:30 145.822/145.860
CANX-2 01 Jul 09:48:25 09:52:25 40° 285° (WNW) 09:56:22 2200.000
FUNcube-1 01 Jul 09:51:46 09:55:06 20° 96° (E) 09:58:25 145.935
RS-15 01 Jul 09:56:12 10:02:43 17° 100° (E) 10:09:20 29.354- 29.394
AUBIESAT-1 01 Jul 09:57:29 10:00:55 24° 103° (ESE) 10:04:29 437.475
UWE-3 01 Jul 10:02:41 10:07:11 47° 100° (E) 10:11:41 435.000/436.395/437.385
SEEDS 01 Jul 10:06:18 10:10:15 40° 285° (WNW) 10:14:10 437.485
CUTE 1.7 + AOD 2 01 Jul 10:08:10 10:11:45 27° 287° (WNW) 10:15:19 437.475
PRISM 01 Jul 10:21:25 10:23:56 16° 264° (W) 10:26:27 437.425
TIGRISAT 01 Jul 10:22:21 10:25:25 19° 71° (ENE) 10:28:31 435.000
DELFI C3 01 Jul 10:24:02 10:27:00 20° 96° (E) 10:29:56 145.870
HO-68 01 Jul 10:27:08 10:33:37 38° 291° (WNW) 10:40:05 435.675
UNISAT 6 01 Jul 10:28:03 10:31:32 25° 72° (ENE) 10:35:04 437.425
AAUSAT CUBESAT 2 01 Jul 10:37:00 10:40:40 31° 286° (WNW) 10:44:18 437.432
M-CUBED/EXP-1 PRIME 01 Jul 10:38:45 10:42:53 78° 287° (WNW) 10:47:19 437.505
PHONESAT 2.4 01 Jul 10:54:05 10:56:33 21° 23° (NNE) 10:59:00 2401.200-2431.200
CUBEBUG 2 01 Jul 10:58:39 11:02:26 25° 288° (WNW) 11:06:15 437.445
PCSat 01 Jul 11:02:05 11:05:57 20° 57° (ENE) 11:09:47 145.827
Cosmos 2491 01 Jul 11:05:55 11:11:13 17° 72° (ENE) 11:16:29 435.465 / 435.565
ANTELSAT 01 Jul 11:06:49 11:11:05 78° 79° (ENE) 11:15:27 437.575/2403.000
ZACube-1 01 Jul 11:11:11 11:15:26 39° 286° (WNW) 11:19:42 437.345
Oscar 11 01 Jul 11:15:25 11:19:15 31° 287° (WNW) 11:23:05 145.826/435.025
FUNcube-1 01 Jul 11:27:24 11:31:14 27° 287° (WNW) 11:35:05 145.935
AUBIESAT-1 01 Jul 11:32:01 11:35:11 21° 291° (WNW) 11:38:30 437.475
NANOSAT C BR1 01 Jul 11:37:36 11:40:47 21° 72° (ENE) 11:43:58 145.865
BEESAT 3 01 Jul 11:39:19 11:42:57 34° 60° (ENE) 11:46:33 437.485
UWE-3 01 Jul 11:41:16 11:43:10 12° 291° (WNW) 11:45:04 435.000/436.395/437.385
QB50P1 01 Jul 11:42:05 11:45:33 26° 73° (ENE) 11:49:03 145.935-145.965
POPSAT HIP 1 01 Jul 11:45:29 11:49:04 28° 73° (ENE) 11:52:39 437.405
DUCHIFAT 1 01 Jul 11:55:59 11:59:45 34° 74° (ENE) 12:03:31 145.980
HUMSAT D 01 Jul 11:57:26 12:01:37 52° 284° (WNW) 12:05:47 437.325/437.525
QB50P2 01 Jul 11:58:09 12:02:09 45° 75° (ENE) 12:06:10 145.880/145.840
TIGRISAT 01 Jul 11:58:26 12:01:53 24° 263° (W) 12:05:25 435.000
DELFI C3 01 Jul 11:58:50 12:01:41 19° 288° (WNW) 12:04:30 145.870
POLYITAN 1 01 Jul 12:00:46 12:04:46 46° 75° (ENE) 12:08:48 437.675
RS-15 01 Jul 12:02:15 12:13:29 86° 296° (WNW) 12:25:25 29.354- 29.394
JAS-2 01 Jul 12:02:26 12:07:14 18° 67° (ENE) 12:11:47 435.910
UNISAT 6 01 Jul 12:05:06 12:08:09 19° 264° (W) 12:11:15 437.425
BEESAT 2 01 Jul 12:23:06 12:27:04 63° 63° (ENE) 12:30:59 435.950
AISAT 01 Jul 12:29:30 12:33:18 28° 98° (E) 12:37:05 437.250
PHONESAT 2.4 01 Jul 12:30:18 12:33:15 44° 215° (SW) 12:36:11 2401.200-2431.200
YUBILEINY 01 Jul 12:35:29 12:43:28 42° 89° (E) 12:51:30 435.215
JUGNU 01 Jul 12:35:34 12:39:02 16° 161° (SSE) 12:42:32 437.505
ESTCUBE 1 01 Jul 12:37:45 12:42:12 62° 101° (E) 12:46:36 437.505/2401.250
DX 1 01 Jul 12:38:36 12:42:12 25° 98° (E) 12:45:46 434.975-435.025
BUGSAT 1 01 Jul 12:38:48 12:42:40 49° 76° (ENE) 12:46:33 437.445
PCSat 01 Jul 12:44:23 12:49:26 42° 251° (WSW) 12:54:29 145.827
Cosmos 2491 01 Jul 12:59:59 13:08:39 73° 267° (W) 13:17:20 435.465 / 435.565
CUBEBUG 1 01 Jul 13:07:39 13:11:59 85° 284° (WNW) 13:16:19 437.445
NANOSAT C BR1 01 Jul 13:13:15 13:16:21 20° 263° (W) 13:19:29 145.865
QB50P1 01 Jul 13:18:33 13:21:15 17° 264° (W) 13:23:58 145.935-145.965
BEESAT 3 01 Jul 13:18:45 13:20:14 12° 252° (WSW) 13:21:44 437.485
POPSAT HIP 1 01 Jul 13:22:20 13:24:48 15° 264° (W) 13:27:18 437.405
50 SAT 01 Jul 13:22:56 13:26:24 42° 285° (WNW) 13:29:51 437.505
O/OREOS (USA 219) 01 Jul 13:23:29 13:27:59 78° 252° (WSW) 13:32:28 437.305
VELOX 1 01 Jul 13:24:08 13:28:27 60° 284° (WNW) 13:32:46 145.980
AIST 2 01 Jul 13:32:31 13:35:07 16° 56° (NE) 13:37:42 435.215
DUCHIFAT 1 01 Jul 13:33:44 13:35:28 12° 265° (W) 13:37:14 145.980
Oscar 19 01 Jul 13:35:47 13:40:18 32° 72° (ENE) 13:44:49 437.125/150
Cosmos 2504 01 Jul 13:40:19 13:47:13 32° 86° (E) 13:54:29 435.465 / 435.565
SPROUT 01 Jul 13:43:24 13:47:42 86° 287° (WNW) 13:52:00 437.525
JAS-2 01 Jul 13:43:57 13:51:40 70° 258° (WSW) 13:58:48 435.910
UKube-1 01 Jul 13:48:11 13:52:21 50° 285° (WNW) 13:56:30 .
AISAT 01 Jul 14:06:34 14:09:30 18° 290° (WNW) 14:12:26 437.250
DX 1 01 Jul 14:15:06 14:18:09 19° 289° (WNW) 14:21:13 434.975-435.025
Gurwin Techsat 1B 01 Jul 14:17:58 14:22:46 36° 72° (ENE) 14:27:34 435.225
RS-15 01 Jul 14:19:42 14:27:45 21° 318° (NW) 14:36:09 29.354- 29.394
JUGNU 01 Jul 14:22:26 14:27:35 30° 169° (S) 14:32:44 437.505
YUBILEINY 01 Jul 14:32:44 14:40:12 32° 283° (WNW) 14:47:45 435.215
TISAT 1 01 Jul 14:52:00 14:56:07 55° 285° (WNW) 15:00:15 437.305
AIST 2 01 Jul 15:09:54 15:13:37 32° 248° (WSW) 15:17:17 435.215
SWISSCUBE 01 Jul 15:14:44 15:19:15 40° 100° (E) 15:23:43 437.505
Oscar 19 01 Jul 15:15:43 15:19:33 21° 263° (W) 15:23:24 437.125/150
AO-7 01 Jul 15:27:35 15:34:50 35° 65° (ENE) 15:42:06 29.400- 29.500
SO-50 01 Jul 15:27:47 15:32:39 82° 296° (WNW) 15:37:34 436.795
Cosmos 2504 01 Jul 15:32:50 15:40:15 40° 282° (WNW) 15:48:11 435.465 / 435.565
ISS 01 Jul 15:38:51 15:41:58 41° 45° (NE) 15:45:03 145.825
BEESAT 01 Jul 15:39:25 15:44:12 72° 102° (ESE) 15:48:56 436.000
ITUPSAT 1 01 Jul 15:42:39 15:47:27 77° 102° (ESE) 15:52:13 437.325
SRMSAT 01 Jul 15:43:33 15:48:10 23° 165° (SSE) 15:52:47 437.500
ITAMSAT 1 01 Jul 15:43:44 15:48:57 89° 263° (W) 15:54:11 435.822/435.867
Gurwin Techsat 1B 01 Jul 15:58:53 16:02:42 20° 264° (W) 16:06:32 435.225
JUGNU 01 Jul 16:10:44 16:16:15 38° 179° (S) 16:21:46 437.505
AIST 1 01 Jul 16:36:07 16:39:12 19° 89° (E) 16:42:15
SWISSCUBE 01 Jul 16:53:59 16:56:38 15° 292° (WNW) 16:59:16 437.505
KKS-1 01 Jul 17:11:57 17:16:25 84° 104° (ESE) 17:20:52 437.445
AO-7 01 Jul 17:19:36 17:27:17 42° 258° (WSW) 17:35:05 29.400- 29.500
MOZHAYETS 4 01 Jul 17:26:27 17:31:04 71° 283° (WNW) 17:35:38
HORYU 2 01 Jul 17:28:17 17:32:36 58° 75° (ENE) 17:36:58 437.375
NOAA 15 01 Jul 17:30:17 17:31:28 11° 65° (ENE) 17:32:40 137.62
SRMSAT 01 Jul 17:31:32 17:36:56 36° 174° (S) 17:42:20 437.500
STARS 01 Jul 17:34:57 17:39:22 74° 101° (ESE) 17:43:46 437.465
BRITE-PL 01 Jul 17:35:41 17:36:33 10° 70° (ENE) 17:37:24 437.365/2234.400
JUGNU 01 Jul 17:59:40 18:04:56 32° 189° (S) 18:10:11 437.505
Cosmos 2499 01 Jul 18:07:40 18:13:42 23° 83° (E) 18:19:56 435.465 / 435.565
AIST 1 01 Jul 18:13:12 18:16:34 22° 281° (W) 18:19:57
Cubesat XI-IV 01 Jul 18:16:16 18:20:31 25° 70° (ENE) 18:24:47 437.490
LilacSat-2 01 Jul 18:30:41 18:33:46 25° 74° (ENE) 18:36:54 437.200
GONETS M04 01 Jul 18:33:16 18:41:44 58° 91° (E) 18:50:10
NOAA 18 01 Jul 18:37:15 18:42:26 46° 73° (ENE) 18:47:39 137.9125
CUTE-I 01 Jul 18:48:24 18:53:35 54° 74° (ENE) 18:58:49 437.470
CUBESAT XI-V 01 Jul 19:03:19 19:07:49 55° 285° (WNW) 19:12:17 437.345
RS-15 01 Jul 19:03:28 19:09:25 14° 35° (NE) 19:15:20 29.354- 29.394
NOAA 15 01 Jul 19:05:20 19:10:36 68° 258° (WSW) 19:15:52 137.62
HO-68 01 Jul 19:06:02 19:07:25 11° 60° (ENE) 19:08:49 435.675
BRITE-PL 01 Jul 19:09:33 19:14:37 60° 259° (W) 19:19:19 437.365/2234.400
CUSAT 1 01 Jul 19:10:05 19:13:01 75° 82° (E) 19:15:37 437.405
SRMSAT 01 Jul 19:20:20 19:25:47 37° 184° (S) 19:31:12 437.500
GOMX 1 01 Jul 19:25:56 19:30:37 87° 78° (ENE) 19:35:01 467.674
JUGNU 01 Jul 19:49:34 19:53:30 18° 198° (SSW) 19:57:25 437.505
Cubesat XI-IV 01 Jul 19:55:44 20:00:21 30° 262° (W) 20:05:01 437.490
Cosmos 2499 01 Jul 19:57:59 20:06:01 58° 279° (W) 20:14:36 435.465 / 435.565
DANDE 01 Jul 20:04:54 20:08:41 58° 266° (W) 20:11:38 436.750
LilacSat-2 01 Jul 20:06:03 20:08:01 14° 265° (W) 20:10:01 437.200
DOVE 4 01 Jul 20:09:01 20:13:22 68° 260° (W) 20:17:32 437.250
STRAND 1 01 Jul 20:09:32 20:14:18 38° 99° (E) 20:19:02 437.568
NOAA 18 01 Jul 20:19:57 20:23:12 16° 264° (W) 20:26:29 137.9125
COMPASS 1 01 Jul 20:23:37 20:26:06 15° 70° (ENE) 20:28:35 437.405
CUTE-I 01 Jul 20:31:28 20:33:50 13° 266° (W) 20:36:13 437.470
GONETS M04 01 Jul 20:32:25 20:38:51 23° 286° (WNW) 20:45:20
CANX-2 01 Jul 20:33:40 20:37:50 55° 76° (ENE) 20:42:02 2200.000
CINEMA 3 01 Jul 20:39:13 20:43:19 64° 76° (ENE) 20:47:25 145.822/145.860
HO-68 01 Jul 20:46:53 20:54:02 81° 73° (ENE) 21:01:13 435.675
SEEDS 01 Jul 20:50:31 20:54:38 52° 76° (ENE) 20:58:47 437.485
CUTE 1.7 + AOD 2 01 Jul 20:52:51 20:57:07 85° 75° (ENE) 21:01:25 437.475
UWE-3 01 Jul 20:54:31 20:56:57 15° 70° (ENE) 20:59:24 435.000/436.395/437.385
AO-85 01 Jul 20:58:26 21:03:52 87° 120° (ESE) 21:09:15 145.980
SRMSAT 01 Jul 21:09:47 21:14:34 25° 194° (SSW) 21:19:18 437.500
RS-15 01 Jul 21:12:59 21:25:10 59° 60° (ENE) 21:37:03 29.354- 29.394
AAUSAT CUBESAT 2 01 Jul 21:19:28 21:23:37 64° 77° (ENE) 21:27:46 437.432
M-CUBED/EXP-1 PRIME 01 Jul 21:20:07 21:23:04 32° 71° (ENE) 21:26:02 437.505
CUBEBUG 2 01 Jul 21:49:09 21:53:14 63° 259° (W) 21:57:26 437.445
STRAND 1 01 Jul 21:49:42 21:53:07 18° 291° (WNW) 21:56:31 437.568
COMPASS 1 01 Jul 21:57:40 22:01:20 29° 262° (W) 22:05:03 437.405
ZACube-1 01 Jul 21:59:39 22:03:47 66° 76° (ENE) 22:08:02 437.345
Oscar 11 01 Jul 22:02:22 22:06:42 80° 77° (ENE) 22:11:03 145.826/435.025
PRISM 01 Jul 22:08:00 22:12:01 65° 284° (WNW) 22:16:02 437.425
AUBIESAT-1 01 Jul 22:11:48 22:14:56 42° 256° (WSW) 22:18:05 437.475
FUNcube-1 01 Jul 22:15:10 22:19:20 82° 256° (WSW) 22:23:37 145.935
UWE-3 01 Jul 22:29:28 22:33:05 29° 262° (W) 22:36:48 435.000/436.395/437.385
DELFI C3 01 Jul 22:36:26 22:40:27 89° 79° (ENE) 22:44:30 145.870
HO-68 01 Jul 22:39:32 22:42:13 12° 266° (W) 22:44:55 435.675
HUMSAT D 01 Jul 22:41:36 22:45:29 40° 74° (ENE) 22:49:25 437.325/437.525
AO-85 01 Jul 22:43:27 22:44:55 11° 309° (NW) 22:46:21 145.980
YUBILEINY 01 Jul 22:57:11 23:01:04 13° 70° (ENE) 23:04:55 435.215
SRMSAT 01 Jul 23:01:31 23:03:13 11° 201° (SSW) 23:04:55 437.500
ANTELSAT 01 Jul 23:05:32 23:09:38 30° 98° (E) 23:13:44 437.575/2403.000
AISAT 01 Jul 23:22:38 23:23:52 11° 68° (ENE) 23:25:06 437.250
RS-15 01 Jul 23:26:34 23:36:54 33° 256° (WSW) 23:47:05 29.354- 29.394
ESTCUBE 1 01 Jul 23:30:53 23:34:33 25° 72° (ENE) 23:38:13 437.505/2401.250
QB50P2 01 Jul 23:51:31 23:53:38 13° 95° (E) 23:55:44 145.880/145.840
POLYITAN 1 01 Jul 23:54:03 23:56:17 14° 95° (E) 23:58:30 437.675
50 SAT 01 Jul 23:54:05 23:57:11 26° 74° (ENE) 00:00:18 437.505
TIGRISAT 01 Jul 23:55:32 00:00:12 72° 283° (WNW) 00:04:53 435.000
CUBEBUG 1 01 Jul 23:56:56 00:00:47 31° 74° (ENE) 00:04:38 437.445
Cosmos 2491 01 Jul 23:57:45 00:04:34 26° 85° (E) 00:11:19 435.465 / 435.565
UNISAT 6 02 Jul 00:02:01 00:06:36 56° 284° (WNW) 00:11:11 437.425
SO-50 02 Jul 00:07:47 00:10:17 14° 53° (NE) 00:12:44 436.795
VELOX 1 02 Jul 00:14:20 00:18:34 48° 75° (ENE) 00:22:48 145.980
HUMSAT D 02 Jul 00:20:19 00:21:12 11° 266° (W) 00:22:06 437.325/437.525
BUGSAT 1 02 Jul 00:29:01 00:30:54 13° 95° (E) 00:32:48 437.445
SPROUT 02 Jul 00:30:28 00:34:05 28° 73° (ENE) 00:37:42 437.525
UKube-1 02 Jul 00:35:31 00:39:41 51° 75° (ENE) 00:43:52 .
ANTELSAT 02 Jul 00:42:43 00:46:04 20° 289° (WNW) 00:49:26 437.575/2403.000
YUBILEINY 02 Jul 00:49:53 00:58:46 89° 267° (W) 01:07:37 435.215
AISAT 02 Jul 00:55:40 00:59:53 46° 260° (W) 01:04:07 437.250
DX 1 02 Jul 01:02:24 01:06:38 53° 259° (W) 01:10:53 434.975-435.025
NANOSAT C BR1 02 Jul 01:03:10 01:07:25 76° 283° (WNW) 01:11:40 145.865
JAS-2 02 Jul 01:03:45 01:07:18 18° 95° (E) 01:10:48 435.910
ESTCUBE 1 02 Jul 01:07:45 01:11:13 21° 263° (W) 01:14:41 437.505/2401.250
QB50P1 02 Jul 01:08:24 01:12:36 61° 284° (WNW) 01:16:49 145.935-145.965
POPSAT HIP 1 02 Jul 01:12:00 01:16:11 55° 284° (WNW) 01:20:22 437.405
DUCHIFAT 1 02 Jul 01:22:03 01:26:07 45° 285° (WNW) 01:30:11 145.980
BEESAT 3 02 Jul 01:23:23 01:26:52 31° 112° (ESE) 01:30:22 437.485
QB50P2 02 Jul 01:25:35 01:29:27 34° 286° (WNW) 01:33:19 145.880/145.840
POLYITAN 1 02 Jul 01:28:14 01:32:05 33° 286° (WNW) 01:35:56 437.675
50 SAT 02 Jul 01:29:05 01:30:49 13° 265° (W) 01:32:33 437.505
CUBEBUG 1 02 Jul 01:34:32 01:37:03 15° 264° (W) 01:39:33 437.445
